Weather History for Show Low, AZ

Change the Weather History Date:

Wednesday, December 5, 2012

  Actual Average Record
Temperature  
Mean Temperature 48 °F -  
Max Temperature 64 °F 45 °F 64 °F (2007)
Min Temperature 32 °F 27 °F 10 °F (2005)
Degree Days  
Heating Degree Days 17    
Moisture  
Dew Point 19 °F    
Average Humidity 35    
Maximum Humidity 60    
Minimum Humidity 15    
Precipitation  
Precipitation 0.00 in - - ()
Sea Level Pressure  
Sea Level Pressure 30.26 in    
Wind  
Wind Speed 6 mph (SSW)    
Max Wind Speed 15 mph    
Max Gust Speed 16 mph    
Visibility 9 miles    
Events      
Averages and records for this station are not official NWS values.
T = Trace of Precipitation, MM = Missing Value Source: NWS Daily Summary

Daily Weather History Graph

Daily Weather History Graph

Search for Another Location

Airport:

Trip Planner

Search our weather history database for the weather conditions in past years. The results will help you decide how hot, cold, wet, or windy it might be!

Date:

Astronomy

Dec. 05, 2012 Rise Set
Actual Time 7:11 AM MST 5:09 PM MST
Civil Twilight 6:44 AM MST 5:37 PM MST
Nautical Twilight 6:12 AM MST 6:08 PM MST
Astronomical Twilight 5:42 AM MST 6:39 PM MST
Moon 11:49 PM MST (12/5) 11:49 AM MST (12/5)
Length of Visible Light 10h 53m
Length of Day
9h 58m
Waning Gibbous, 59% of the Moon is Illuminated
Dec 5
Waning Gibbous
Dec 6
Last Quarter
Dec 13
New
Dec 19
First Quarter
Dec 28
Full

Hourly Weather History & Observations

Time (MST) Temp. Windchill Dew Point Humidity Pressure Visibility Wind Dir Wind Speed Gust Speed Precip Events Conditions
12:15 AM 32.0 °F 26.4 °F 15.8 °F 51% 30.36 in 10.0 mi South 5.8 mph - N/A   Clear
12:35 AM 32.0 °F 27.5 °F 17.6 °F 55% 30.36 in 10.0 mi South 4.6 mph - N/A   Clear
12:55 AM 32.0 °F 27.5 °F 17.6 °F 55% 30.35 in 10.0 mi South 4.6 mph - N/A   Clear
1:15 AM 32.0 °F 28.7 °F 17.6 °F 55% 30.35 in 10.0 mi South 3.5 mph - N/A   Clear
1:35 AM 32.0 °F - 19.4 °F 60% 30.34 in 10.0 mi Calm Calm - N/A   Clear
1:55 AM 32.0 °F 28.7 °F 19.4 °F 60% 30.34 in 9.0 mi South 3.5 mph - N/A   Clear
2:15 AM 37.4 °F - 23.0 °F 56% 30.34 in 10.0 mi Calm Calm - N/A   Clear
2:35 AM 37.4 °F 34.9 °F 23.0 °F 56% 30.34 in 10.0 mi SSW 3.5 mph - N/A   Clear
2:55 AM 35.6 °F 31.7 °F 21.2 °F 56% 30.34 in 9.0 mi SW 4.6 mph - N/A   Clear
3:15 AM 37.4 °F 34.9 °F 23.0 °F 56% 30.34 in 9.0 mi South 3.5 mph - N/A   Clear
3:35 AM 32.0 °F 26.4 °F 19.4 °F 60% 30.34 in 10.0 mi SSE 5.8 mph - N/A   Clear
3:55 AM 32.0 °F 27.5 °F 19.4 °F 60% 30.33 in 10.0 mi SSE 4.6 mph - N/A   Clear
4:15 AM 33.8 °F 30.8 °F 19.4 °F 56% 30.33 in 10.0 mi SSE 3.5 mph - N/A   Clear
4:35 AM 37.4 °F 32.8 °F 23.0 °F 56% 30.33 in 8.0 mi SSE 5.8 mph - N/A   Clear
4:55 AM 35.6 °F 30.7 °F 21.2 °F 56% 30.33 in 7.0 mi SSE 5.8 mph - N/A   Clear
5:15 AM 32.0 °F 25.6 °F 19.4 °F 60% 30.32 in 10.0 mi South 6.9 mph - N/A   Clear
5:35 AM 32.0 °F 28.7 °F 19.4 °F 60% 30.33 in 10.0 mi SSE 3.5 mph - N/A   Clear
5:55 AM 33.8 °F 29.6 °F 19.4 °F 56% 30.32 in 10.0 mi SSE 4.6 mph - N/A   Clear
7:35 AM 32.0 °F 26.4 °F 17.6 °F 55% 30.32 in 10.0 mi South 5.8 mph - N/A   Clear
7:55 AM 32.0 °F 28.7 °F 19.4 °F 60% 30.33 in 9.0 mi South 3.5 mph - N/A   Clear
8:15 AM 37.4 °F - 19.4 °F 48% 30.32 in 10.0 mi Calm Calm - N/A   Clear
8:35 AM 44.6 °F - 19.4 °F 37% 30.32 in 10.0 mi Calm Calm - N/A   Clear
8:55 AM 48.2 °F - 19.4 °F 32% 30.32 in 10.0 mi SSW 4.6 mph - N/A   Clear
9:15 AM 50.0 °F - 21.2 °F 32% 30.32 in 10.0 mi South 6.9 mph - N/A   Clear
9:35 AM 53.6 °F - 23.0 °F 30% 30.32 in 10.0 mi South 8.1 mph - N/A   Clear
9:55 AM 55.4 °F - 23.0 °F 29% 30.32 in 10.0 mi South 9.2 mph - N/A   Clear
10:15 AM 57.2 °F - 23.0 °F 27% 30.32 in 10.0 mi SW 6.9 mph - N/A   Clear
10:35 AM 57.2 °F - 23.0 °F 27% 30.32 in 10.0 mi SSW 10.4 mph - N/A   Clear
10:55 AM 59.0 °F - 21.2 °F 23% 30.31 in 10.0 mi SSW 10.4 mph - N/A   Clear
11:15 AM 59.0 °F - 19.4 °F 22% 30.30 in 10.0 mi SSW 13.8 mph - N/A   Clear
11:35 AM 60.8 °F - 19.4 °F 20% 30.29 in 10.0 mi SSW 11.5 mph - N/A   Clear
11:55 AM 62.6 °F - 19.4 °F 19% 30.27 in 10.0 mi SSW 11.5 mph - N/A   Clear
12:15 PM 62.6 °F - 17.6 °F 18% 30.26 in 10.0 mi SW 10.4 mph 16.1 mph N/A   Clear
12:35 PM 64.4 °F - 19.4 °F 18% 30.24 in 10.0 mi SSW 10.4 mph - N/A   Clear
12:55 PM 64.4 °F - 21.2 °F 19% 30.23 in 10.0 mi South 10.4 mph - N/A   Clear
1:15 PM 64.4 °F - 19.4 °F 18% 30.22 in 10.0 mi SSW 10.4 mph - N/A   Clear
1:35 PM 64.4 °F - 17.6 °F 16% 30.21 in 8.0 mi SW 11.5 mph - N/A   Clear
1:55 PM 64.4 °F - 17.6 °F 16% 30.20 in 9.0 mi SSW 13.8 mph - N/A   Clear
2:15 PM 64.4 °F - 15.8 °F 15% 30.19 in 5.0 mi SW 13.8 mph - N/A   Haze
2:35 PM 64.4 °F - 17.6 °F 16% 30.18 in 3.0 mi SW 13.8 mph - N/A   Haze
2:55 PM 64.4 °F - 15.8 °F 15% 30.18 in 5.0 mi SSW 15.0 mph - N/A   Haze
3:15 PM 64.4 °F - 15.8 °F 15% 30.18 in 5.0 mi SSW 13.8 mph - N/A   Haze
3:35 PM 62.6 °F - 14.0 °F 15% 30.18 in 5.0 mi SW 12.7 mph - N/A   Haze
3:55 PM 62.6 °F - 15.8 °F 16% 30.18 in 9.0 mi SSW 10.4 mph - N/A   Clear
4:15 PM 60.8 °F - 15.8 °F 17% 30.18 in 10.0 mi SW 8.1 mph - N/A   Clear
4:35 PM 59.0 °F - 15.8 °F 19% 30.18 in 10.0 mi SSW 9.2 mph - N/A   Clear
4:55 PM 57.2 °F - 15.8 °F 20% 30.17 in 10.0 mi SSW 6.9 mph - N/A   Clear
5:15 PM 53.6 °F - 17.6 °F 24% 30.18 in 10.0 mi South 5.8 mph - N/A   Clear
5:35 PM 51.8 °F - 17.6 °F 26% 30.18 in 10.0 mi South 4.6 mph - N/A   Clear
5:55 PM 50.0 °F - 17.6 °F 28% 30.17 in 10.0 mi South 5.8 mph - N/A   Clear
6:15 PM 48.2 °F - 15.8 °F 27% 30.17 in 10.0 mi South 8.1 mph - N/A   Clear
6:35 PM 48.2 °F - 17.6 °F 30% 30.17 in 10.0 mi South 6.9 mph - N/A   Clear
6:55 PM 46.4 °F 42.9 °F 17.6 °F 32% 30.18 in 10.0 mi South 6.9 mph - N/A   Clear
7:15 PM 48.2 °F - 17.6 °F 30% 30.18 in 10.0 mi South 10.4 mph - N/A   Clear
7:35 PM 48.2 °F - 19.4 °F 32% 30.17 in 10.0 mi South 12.7 mph - N/A   Clear
7:55 PM 48.2 °F - 19.4 °F 32% 30.18 in 10.0 mi SSW 9.2 mph - N/A   Clear
8:15 PM 46.4 °F 41.1 °F 19.4 °F 34% 30.17 in 10.0 mi South 11.5 mph - N/A   Clear
8:35 PM 46.4 °F 41.1 °F 19.4 °F 34% 30.17 in 10.0 mi South 11.5 mph - N/A   Clear
8:55 PM 46.4 °F 41.5 °F 17.6 °F 32% 30.17 in 10.0 mi South 10.4 mph - N/A   Clear
9:15 PM 46.4 °F 41.9 °F 17.6 °F 32% 30.17 in 10.0 mi South 9.2 mph - N/A   Clear
9:35 PM 46.4 °F 41.9 °F 17.6 °F 32% 30.17 in 10.0 mi South 9.2 mph - N/A   Clear
9:55 PM 46.4 °F 41.5 °F 15.8 °F 29% 30.16 in 10.0 mi South 10.4 mph - N/A   Clear